Weather History for Grand Canyon, AZ

Change the Weather History Date:

Friday, February 15, 2013

  Actual Average Record
Temperature  
Mean Temperature 28 °F -  
Max Temperature 46 °F 43 °F 64 °F (2014)
Min Temperature 9 °F 18 °F -10 °F (1990)
Degree Days  
Heating Degree Days 38    
Moisture  
Dew Point 9 °F    
Average Humidity 56    
Maximum Humidity 84    
Minimum Humidity 15    
Precipitation  
Precipitation 0.00 in - - ()
Sea Level Pressure  
Sea Level Pressure 30.43 in    
Wind  
Wind Speed 4 mph (NE)    
Max Wind Speed 12 mph    
Max Gust Speed -    
Visibility 10 miles    
Events      
Averages and records for this station are not official NWS values.
T = Trace of Precipitation, MM = Missing Value Source: NWS Daily Summary

Daily Weather History Graph

Daily Weather History Graph

Search for Another Location

Airport:

Trip Planner

Search our weather history database for the weather conditions in past years. The results will help you decide how hot, cold, wet, or windy it might be!

Date:

Astronomy

Feb. 15, 2013 Rise Set
Actual Time 7:15 AM MST 6:10 PM MST
Civil Twilight 6:49 AM MST 6:36 PM MST
Nautical Twilight 6:19 AM MST 7:06 PM MST
Astronomical Twilight 5:49 AM MST 7:36 PM MST
Moon 10:06 AM MST (2/15) No Moon Set
Length of Visible Light 11h 47m
Length of Day
10h 55m
Waxing Crescent, 31% of the Moon is Illuminated
Feb 15
Waxing Crescent
Feb 17
First Quarter
Feb 25
Full
Mar 4
Last Quarter
Mar 11
New

Hourly Weather History & Observations

Time (MST) Temp. Windchill Dew Point Humidity Pressure Visibility Wind Dir Wind Speed Gust Speed Precip Events Conditions
12:54 AM 15.1 °F - 10.9 °F 84% 30.35 in 10.0 mi Calm Calm - N/A   Clear
1:54 AM 15.1 °F 4.2 °F 10.9 °F 84% 30.35 in 10.0 mi ENE 8.1 mph - N/A   Clear
2:54 AM 12.9 °F 6.9 °F 9.0 °F 84% 30.35 in 10.0 mi NE 3.5 mph - N/A   Clear
3:54 AM 12.0 °F - 8.1 °F 84% 30.35 in 10.0 mi Calm Calm - N/A   Clear
4:54 AM 10.9 °F - 7.0 °F 84% 30.36 in 10.0 mi Calm Calm - N/A   Clear
5:54 AM 10.0 °F - 5.0 °F 80% 30.40 in 10.0 mi Calm Calm - N/A   Clear
6:54 AM 9.0 °F 2.4 °F 3.9 °F 80% 30.46 in 10.0 mi NE 3.5 mph - N/A   Clear
7:54 AM 12.9 °F 5.2 °F 8.1 °F 81% 30.48 in 10.0 mi NE 4.6 mph - N/A   Clear
8:54 AM 21.9 °F 15.7 °F 15.1 °F 75% 30.48 in 10.0 mi ENE 4.6 mph - N/A   Clear
9:54 AM 41.0 °F 35.2 °F 9.0 °F 27% 30.42 in 10.0 mi NE 9.2 mph - N/A   Clear
10:54 AM 43.0 °F 37.7 °F 6.1 °F 22% 30.42 in 10.0 mi NE 9.2 mph - N/A   Clear
11:54 AM 44.1 °F 39.0 °F 6.1 °F 21% 30.43 in 10.0 mi ENE 9.2 mph - N/A   Clear
12:54 PM 46.9 °F - 3.0 °F 16% 30.40 in 10.0 mi NE 10.4 mph - N/A   Unknown
1:54 PM - - - N/A% 30.37 in - North - - N/A   Unknown
2:54 PM 46.9 °F - 3.9 °F 17% 30.40 in 10.0 mi ENE 8.1 mph - N/A   Clear
2:58 PM 46.4 °F 41.1 °F 8.6 °F 22% 30.37 in 10.0 mi NNE 11.5 mph - N/A   Clear
3:54 PM 46.9 °F - 7.0 °F 20% 30.41 in 10.0 mi NE 9.2 mph - N/A   Clear
4:54 PM 46.9 °F - 1.0 °F 15% 30.41 in 10.0 mi ENE 3.5 mph - N/A   Clear
5:54 PM 39.9 °F 35.8 °F 10.0 °F 29% 30.46 in 10.0 mi ENE 5.8 mph - N/A   Clear
6:54 PM 28.9 °F 21.9 °F 14.0 °F 54% 30.53 in 10.0 mi NE 6.9 mph - N/A   Clear
7:54 PM 24.1 °F - 12.9 °F 62% 30.54 in 10.0 mi Calm Calm - N/A   Clear
8:54 PM 19.9 °F - 12.9 °F 74% 30.53 in 10.0 mi Calm Calm - N/A   Clear
9:54 PM 19.9 °F 12.1 °F 12.9 °F 74% 30.45 in 10.0 mi NE 5.8 mph - N/A   Clear
10:54 PM 19.0 °F 13.9 °F 12.9 °F 77% 30.46 in 10.0 mi NE 3.5 mph - N/A   Clear
11:54 PM 19.0 °F 11.1 °F 10.9 °F 71% 30.45 in 10.0 mi NE 5.8 mph - N/A   Clear